LHA772 EDDS-EDDH

Flight info

Callsign LHA772
Flight time 0h 59m
Altitude 33000
Route OKIBA N851 RIMKI Z99 LOHRE DCT MASEK DCT ELNAT/N0446F320 P605 NOLGO
Aircraft A320/M-SDE3FGHIRWY/LB1

Departure

Time 2026-05-07 17:21
Airport Stuttgart Airport (EDDS)

Arrival

Time 2026-05-07 18:20
Airport Hamburg Helmut Schmidt Airport (EDDH)
Time Latitude Longitude Altitude Speed Heading
2026-05-07 16:44 48.68943 9.19644 1315 ft 0 kts 344°
2026-05-07 17:09 48.68934 9.19648 1314 ft 4 kts 344°
2026-05-07 17:10 48.68908 9.19660 1312 ft 4 kts 344°
2026-05-07 17:10 48.68886 9.19669 1310 ft 4 kts 353°
2026-05-07 17:10 48.68864 9.19663 1309 ft 4 kts 51°
2026-05-07 17:10 48.68854 9.19633 1309 ft 1 kts 74°
2026-05-07 17:11 48.68854 9.19632 1309 ft 1 kts 74°
2026-05-07 17:13 48.68858 9.19654 1309 ft 6 kts 74°
2026-05-07 17:13 48.68881 9.19767 1306 ft 16 kts 73°
2026-05-07 17:13 48.68840 9.19896 1299 ft 14 kts 157°
2026-05-07 17:13 48.68842 9.20047 1294 ft 18 kts 72°
2026-05-07 17:14 48.68879 9.20251 1289 ft 18 kts 73°
2026-05-07 17:14 48.68919 9.20457 1286 ft 23 kts 73°
2026-05-07 17:14 48.68963 9.20685 1280 ft 22 kts 73°
2026-05-07 17:14 48.69000 9.20886 1274 ft 22 kts 74°
2026-05-07 17:15 48.69043 9.21110 1268 ft 22 kts 74°
2026-05-07 17:15 48.69090 9.21346 1263 ft 24 kts 74°
2026-05-07 17:15 48.69133 9.21583 1261 ft 23 kts 74°
2026-05-07 17:15 48.69180 9.21829 1257 ft 26 kts 74°
2026-05-07 17:16 48.69224 9.22063 1250 ft 24 kts 74°
2026-05-07 17:16 48.69264 9.22277 1241 ft 19 kts 74°
2026-05-07 17:16 48.69303 9.22494 1242 ft 24 kts 75°
2026-05-07 17:16 48.69335 9.22661 1232 ft 26 kts 72°
2026-05-07 17:17 48.69384 9.22904 1228 ft 25 kts 73°
2026-05-07 17:17 48.69425 9.23126 1223 ft 24 kts 74°
2026-05-07 17:17 48.69472 9.23371 1218 ft 22 kts 74°
2026-05-07 17:17 48.69518 9.23619 1213 ft 26 kts 74°
2026-05-07 17:18 48.69563 9.23853 1208 ft 20 kts 74°
2026-05-07 17:18 48.69606 9.24077 1203 ft 21 kts 74°
2026-05-07 17:18 48.69557 9.24275 1194 ft 21 kts 131°
2026-05-07 17:18 48.69414 9.24322 1191 ft 20 kts 198°
2026-05-07 17:19 48.69371 9.24215 1193 ft 0 kts 254°
2026-05-07 17:19 48.69371 9.24214 1193 ft 0 kts 257°
2026-05-07 17:20 48.69371 9.24213 1193 ft 2 kts 257°
2026-05-07 17:20 48.69320 9.23949 1198 ft 59 kts 254°
2026-05-07 17:20 48.69149 9.23051 1216 ft 117 kts 254°
2026-05-07 17:20 48.68886 9.21642 1269 ft 157 kts 255°
2026-05-07 17:21 48.68601 9.20117 1933 ft 149 kts 257°
2026-05-07 17:21 48.68321 9.18642 2571 ft 142 kts 257°
2026-05-07 17:21 48.68029 9.17138 2880 ft 159 kts 256°
2026-05-07 17:21 48.67693 9.15412 3000 ft 187 kts 255°
2026-05-07 17:22 48.67298 9.13395 3186 ft 213 kts 255°
2026-05-07 17:22 48.66986 9.11116 3581 ft 232 kts 275°
2026-05-07 17:22 48.67554 9.08857 4326 ft 234 kts 305°
2026-05-07 17:22 48.68619 9.06971 5132 ft 240 kts 323°
2026-05-07 17:23 48.70172 9.05907 5758 ft 257 kts 344°
2026-05-07 17:23 48.71935 9.05144 6440 ft 268 kts 341°
2026-05-07 17:23 48.73747 9.04345 7227 ft 274 kts 347°
2026-05-07 17:23 48.75673 9.04289 8024 ft 283 kts
2026-05-07 17:24 48.77526 9.05357 8817 ft 290 kts 32°
2026-05-07 17:24 48.79006 9.07463 9602 ft 297 kts 53°
2026-05-07 17:24 48.80209 9.10030 10306 ft 303 kts 54°
2026-05-07 17:24 48.81468 9.12750 10544 ft 326 kts 54°
2026-05-07 17:25 48.82812 9.15660 10713 ft 348 kts 54°
2026-05-07 17:25 48.84225 9.18718 11192 ft 358 kts 54°
2026-05-07 17:25 48.85662 9.21832 11863 ft 362 kts 54°
2026-05-07 17:25 48.87115 9.24977 12527 ft 365 kts 54°
2026-05-07 17:26 48.88660 9.28056 13222 ft 368 kts 46°
2026-05-07 17:26 48.90601 9.30596 13890 ft 370 kts 32°
2026-05-07 17:26 48.92878 9.32405 14482 ft 371 kts 19°
2026-05-07 17:26 48.95376 9.33381 15120 ft 371 kts
2026-05-07 17:27 48.97952 9.33503 15739 ft 372 kts 355°
2026-05-07 17:27 49.00546 9.33294 16350 ft 375 kts 355°
2026-05-07 17:27 49.03162 9.33083 16970 ft 378 kts 354°
2026-05-07 17:27 49.05803 9.32868 17584 ft 382 kts 354°
2026-05-07 17:28 49.08468 9.32650 18210 ft 386 kts 354°
2026-05-07 17:28 49.11161 9.32430 18783 ft 389 kts 354°
2026-05-07 17:28 49.13878 9.32212 19350 ft 392 kts 354°
2026-05-07 17:28 49.16610 9.31995 19939 ft 395 kts 354°
2026-05-07 17:29 49.19364 9.31777 20519 ft 398 kts 354°
2026-05-07 17:29 49.22138 9.31556 21091 ft 401 kts 354°
2026-05-07 17:29 49.24932 9.31338 21635 ft 403 kts 354°
2026-05-07 17:29 49.27743 9.31122 22145 ft 406 kts 354°
2026-05-07 17:30 49.30577 9.30904 22644 ft 409 kts 354°
2026-05-07 17:30 49.33425 9.30682 23149 ft 411 kts 354°
2026-05-07 17:30 49.36297 9.30657 23605 ft 416 kts
2026-05-07 17:30 49.39194 9.31080 24022 ft 419 kts
2026-05-07 17:31 49.42098 9.31518 24430 ft 420 kts
2026-05-07 17:31 49.45017 9.31956 24827 ft 422 kts
2026-05-07 17:31 49.47948 9.32390 25208 ft 424 kts
2026-05-07 17:31 49.50888 9.32819 25588 ft 426 kts
2026-05-07 17:32 49.53846 9.33251 25958 ft 428 kts
2026-05-07 17:32 49.56811 9.33689 26328 ft 430 kts
2026-05-07 17:32 49.59795 9.34134 26702 ft 432 kts
2026-05-07 17:32 49.62789 9.34583 27068 ft 433 kts
2026-05-07 17:33 49.65800 9.35030 27426 ft 435 kts
2026-05-07 17:33 49.68821 9.35478 27776 ft 437 kts
2026-05-07 17:33 49.71833 9.35926 28122 ft 439 kts
2026-05-07 17:33 49.74875 9.36458 28455 ft 442 kts
2026-05-07 17:34 49.77889 9.37519 28809 ft 444 kts 12°
2026-05-07 17:34 49.80881 9.38680 29290 ft 443 kts 12°
2026-05-07 17:34 49.83864 9.39832 29784 ft 441 kts 12°
2026-05-07 17:34 49.86839 9.40975 30248 ft 440 kts 12°
2026-05-07 17:35 49.89809 9.42115 30639 ft 439 kts 12°
2026-05-07 17:35 49.92776 9.43254 31025 ft 439 kts 12°
2026-05-07 17:35 49.95743 9.44395 31406 ft 439 kts 12°
2026-05-07 17:35 49.98705 9.45539 31786 ft 439 kts 12°
2026-05-07 17:36 50.01675 9.46689 32019 ft 440 kts 12°
2026-05-07 17:36 50.04657 9.47846 32068 ft 444 kts 12°
2026-05-07 17:36 50.10758 9.49313 32061 ft 444 kts
2026-05-07 17:37 50.16912 9.50335 32063 ft 445 kts
2026-05-07 17:37 50.23062 9.51379 32061 ft 445 kts
2026-05-07 17:38 50.29213 9.52416 32064 ft 445 kts
2026-05-07 17:38 50.35330 9.53442 32067 ft 445 kts
2026-05-07 17:39 50.41477 9.54498 32064 ft 445 kts
2026-05-07 17:39 50.47638 9.55583 32065 ft 445 kts
2026-05-07 17:40 50.53783 9.56666 32077 ft 445 kts
2026-05-07 17:40 50.59939 9.57765 32077 ft 445 kts
2026-05-07 17:41 50.66091 9.58864 32076 ft 445 kts
2026-05-07 17:41 50.72242 9.59963 32079 ft 445 kts
2026-05-07 17:42 50.78395 9.61068 32081 ft 445 kts
2026-05-07 17:42 50.84542 9.62172 32082 ft 445 kts
2026-05-07 17:43 50.90694 9.63276 32084 ft 445 kts
2026-05-07 17:43 50.96855 9.64389 32087 ft 445 kts
2026-05-07 17:44 51.03006 9.65506 32087 ft 445 kts
2026-05-07 17:44 51.09157 9.66635 32087 ft 445 kts
2026-05-07 17:45 51.15305 9.67812 32090 ft 445 kts
2026-05-07 17:45 51.21454 9.69022 32094 ft 445 kts
2026-05-07 17:46 51.27595 9.70238 32093 ft 445 kts
2026-05-07 17:46 51.33738 9.71451 32095 ft 445 kts
2026-05-07 17:47 51.39885 9.72655 32093 ft 445 kts
2026-05-07 17:47 51.46025 9.73850 32094 ft 445 kts
2026-05-07 17:48 51.52162 9.75061 32093 ft 444 kts
2026-05-07 17:48 51.58300 9.76289 32089 ft 444 kts
2026-05-07 17:49 51.64432 9.77510 32094 ft 444 kts
2026-05-07 17:49 51.70565 9.78730 32099 ft 444 kts
2026-05-07 17:50 51.76690 9.79964 32095 ft 444 kts
2026-05-07 17:50 51.82818 9.81190 32097 ft 443 kts
2026-05-07 17:51 51.88942 9.82418 32100 ft 443 kts
2026-05-07 17:51 51.95064 9.83657 32101 ft 443 kts
2026-05-07 17:52 52.01188 9.84896 32106 ft 443 kts
2026-05-07 17:52 52.07309 9.86134 32102 ft 443 kts
2026-05-07 17:53 52.10376 9.86752 31701 ft 444 kts
2026-05-07 17:53 52.13438 9.87370 31251 ft 444 kts
2026-05-07 17:53 52.16506 9.87997 30795 ft 444 kts
2026-05-07 17:53 52.19581 9.88630 30366 ft 445 kts
2026-05-07 17:54 52.22660 9.89268 29958 ft 447 kts
2026-05-07 17:54 52.25735 9.89902 29441 ft 449 kts
2026-05-07 17:54 52.28835 9.90534 28931 ft 449 kts
2026-05-07 17:54 52.31929 9.91165 28427 ft 447 kts
2026-05-07 17:55 52.35002 9.91798 27942 ft 444 kts
2026-05-07 17:55 52.38064 9.92425 27459 ft 442 kts
2026-05-07 17:55 52.41108 9.93048 26982 ft 439 kts
2026-05-07 17:55 52.44118 9.93669 26515 ft 432 kts
2026-05-07 17:56 52.47075 9.94281 26055 ft 425 kts
2026-05-07 17:56 52.49994 9.94883 25604 ft 421 kts
2026-05-07 17:56 52.52924 9.95488 25206 ft 426 kts
2026-05-07 17:56 52.55873 9.96095 25075 ft 427 kts
2026-05-07 17:57 52.58836 9.96705 24933 ft 430 kts
2026-05-07 17:57 52.60794 9.97109 24652 ft 428 kts
2026-05-07 17:57 52.64730 9.97925 24106 ft 425 kts
2026-05-07 17:57 52.67652 9.98537 23637 ft 422 kts
2026-05-07 17:58 52.70557 9.99147 23080 ft 419 kts
2026-05-07 17:58 52.73433 9.99752 22532 ft 416 kts
2026-05-07 17:58 52.76250 10.00346 21998 ft 411 kts
2026-05-07 17:58 52.79114 10.00952 21465 ft 407 kts
2026-05-07 17:59 52.81875 10.01536 20955 ft 404 kts
2026-05-07 17:59 52.84653 10.02124 20453 ft 401 kts
2026-05-07 17:59 52.87418 10.02707 19952 ft 399 kts
2026-05-07 17:59 52.90161 10.03284 19461 ft 397 kts
2026-05-07 18:00 52.92895 10.03858 18905 ft 396 kts
2026-05-07 18:00 52.95626 10.04433 18298 ft 396 kts
2026-05-07 18:00 52.98362 10.05009 17620 ft 396 kts
2026-05-07 18:00 53.01100 10.05585 16949 ft 396 kts
2026-05-07 18:01 53.03827 10.06162 16288 ft 395 kts
2026-05-07 18:01 53.06543 10.06738 15659 ft 393 kts
2026-05-07 18:01 53.08379 10.07128 15233 ft 392 kts
2026-05-07 18:01 53.11079 10.07706 14614 ft 390 kts
2026-05-07 18:02 53.16423 10.08851 13346 ft 384 kts
2026-05-07 18:02 53.19065 10.09413 12681 ft 381 kts
2026-05-07 18:02 53.21679 10.09965 12016 ft 378 kts
2026-05-07 18:03 53.24277 10.10516 11388 ft 374 kts
2026-05-07 18:03 53.26846 10.11064 10762 ft 370 kts
2026-05-07 18:03 53.29387 10.11608 10149 ft 366 kts
2026-05-07 18:03 53.31861 10.12140 9486 ft 349 kts
2026-05-07 18:04 53.34211 10.12651 8824 ft 333 kts
2026-05-07 18:04 53.36362 10.13734 8188 ft 317 kts 30°
2026-05-07 18:04 53.37972 10.16055 7838 ft 295 kts 51°
2026-05-07 18:04 53.39156 10.18681 7786 ft 269 kts 54°
2026-05-07 18:05 53.40209 10.21111 7719 ft 247 kts 54°
2026-05-07 18:05 53.41192 10.23397 7669 ft 240 kts 54°
2026-05-07 18:05 53.42150 10.25627 7402 ft 238 kts 54°
2026-05-07 18:05 53.43112 10.27863 7159 ft 234 kts 54°
2026-05-07 18:06 53.44063 10.30073 7090 ft 234 kts 54°
2026-05-07 18:06 53.45020 10.32297 6986 ft 236 kts 54°
2026-05-07 18:06 53.46155 10.34259 6715 ft 236 kts 31°
2026-05-07 18:06 53.47722 10.34991 6440 ft 237 kts
2026-05-07 18:07 53.49294 10.34222 6151 ft 238 kts 331°
2026-05-07 18:07 53.50662 10.32654 5859 ft 238 kts 325°
2026-05-07 18:07 53.51985 10.30977 5570 ft 238 kts 324°
2026-05-07 18:07 53.53301 10.29282 5304 ft 238 kts 324°
2026-05-07 18:08 53.54616 10.27590 5060 ft 237 kts 324°
2026-05-07 18:08 53.55931 10.25901 4992 ft 239 kts 325°
2026-05-07 18:08 53.57257 10.24163 5008 ft 243 kts 324°
2026-05-07 18:08 53.58592 10.22417 5011 ft 243 kts 324°
2026-05-07 18:09 53.59922 10.20693 5009 ft 241 kts 324°
2026-05-07 18:09 53.61251 10.18961 5009 ft 242 kts 324°
2026-05-07 18:09 53.62535 10.17150 5007 ft 241 kts 311°
2026-05-07 18:09 53.63263 10.14631 5013 ft 243 kts 279°
2026-05-07 18:10 53.63113 10.11824 5007 ft 243 kts 245°
2026-05-07 18:10 53.62140 10.09546 5014 ft 241 kts 219°
2026-05-07 18:10 53.60840 10.07759 5011 ft 241 kts 215°
2026-05-07 18:10 53.59508 10.06039 5010 ft 241 kts 214°
2026-05-07 18:11 53.58171 10.04333 5010 ft 241 kts 215°
2026-05-07 18:11 53.56830 10.02651 5012 ft 241 kts 216°
2026-05-07 18:11 53.55578 10.00773 5010 ft 242 kts 223°
2026-05-07 18:11 53.54393 9.98762 5013 ft 242 kts 224°
2026-05-07 18:12 53.53219 9.96736 5009 ft 242 kts 224°
2026-05-07 18:12 53.52047 9.94710 5009 ft 242 kts 224°
2026-05-07 18:12 53.50910 9.92743 4991 ft 243 kts 224°
2026-05-07 18:12 53.49722 9.90686 4580 ft 247 kts 224°
2026-05-07 18:13 53.48518 9.88604 4196 ft 249 kts 224°
2026-05-07 18:13 53.47315 9.86527 3900 ft 248 kts 224°
2026-05-07 18:13 53.46120 9.84460 3623 ft 246 kts 224°
2026-05-07 18:13 53.44950 9.82382 3362 ft 244 kts 231°
2026-05-07 18:14 53.44285 9.79817 3097 ft 241 kts 264°
2026-05-07 18:14 53.44532 9.77112 2998 ft 235 kts 298°
2026-05-07 18:14 53.45557 9.75016 3019 ft 234 kts 321°
2026-05-07 18:14 53.46817 9.73281 3013 ft 234 kts 324°
2026-05-07 18:15 53.48209 9.71948 3003 ft 229 kts 349°
2026-05-07 18:15 53.49764 9.72003 3014 ft 224 kts 18°
2026-05-07 18:15 53.51195 9.72835 3007 ft 210 kts 24°
2026-05-07 18:15 53.52461 9.73868 2946 ft 196 kts 42°
2026-05-07 18:16 53.53136 9.75714 2802 ft 183 kts 78°
2026-05-07 18:16 53.53341 9.77747 2769 ft 169 kts 76°
2026-05-07 18:16 53.53761 9.79523 2647 ft 162 kts 62°
2026-05-07 18:16 53.54357 9.81084 2443 ft 160 kts 56°
2026-05-07 18:17 53.55023 9.82569 2228 ft 158 kts 53°
2026-05-07 18:17 53.55708 9.84003 2024 ft 157 kts 53°
2026-05-07 18:17 53.56399 9.85416 1800 ft 156 kts 52°
2026-05-07 18:17 53.57125 9.86890 1596 ft 174 kts 52°
2026-05-07 18:18 53.57912 9.88480 1348 ft 177 kts 52°
2026-05-07 18:18 53.58656 9.89975 1108 ft 156 kts 52°
2026-05-07 18:18 53.59317 9.91308 899 ft 141 kts 51°
2026-05-07 18:18 53.59936 9.92557 701 ft 139 kts 51°
2026-05-07 18:19 53.60550 9.93796 523 ft 138 kts 51°
2026-05-07 18:19 53.61163 9.95022 339 ft 138 kts 50°
2026-05-07 18:19 53.61774 9.96250 127 ft 136 kts 51°
2026-05-07 18:19 53.62366 9.97470 45 ft 129 kts 49°
2026-05-07 18:20 53.62837 9.98418 44 ft 81 kts 50°
2026-05-07 18:20 53.63073 9.98917 46 ft 31 kts 64°
2026-05-07 18:20 53.63087 9.99214 47 ft 23 kts 95°
2026-05-07 18:20 53.63085 9.99256 47 ft 0 kts 93°
2026-05-07 18:21 53.63084 9.99264 47 ft 3 kts 93°
2026-05-07 18:21 53.63087 9.99350 47 ft 11 kts 80°
2026-05-07 18:22 53.63142 9.99495 46 ft 18 kts 57°
2026-05-07 18:22 53.63194 9.99617 47 ft 19 kts 52°
2026-05-07 18:22 53.63226 9.99681 48 ft 0 kts 49°
2026-05-07 18:23 53.63227 9.99683 47 ft 1 kts 49°
2026-05-07 18:23 53.63261 9.99739 48 ft 11 kts 44°
2026-05-07 18:24 53.63322 9.99853 48 ft 15 kts 52°
2026-05-07 18:24 53.63393 9.99991 48 ft 16 kts 49°
2026-05-07 18:24 53.63428 10.00127 48 ft 12 kts 120°
2026-05-07 18:24 53.63368 10.00226 48 ft 12 kts 167°
2026-05-07 18:25 53.63333 10.00258 48 ft 0 kts 92°
2026-05-07 18:25 53.63331 10.00280 48 ft 3 kts 98°
2026-05-07 18:25 53.63331 10.00337 48 ft 6 kts 87°
2026-05-07 18:25 53.63331 10.00354 48 ft 0 kts 87°